| time (UTC) | temp F | wind direction | speed MPH | gust MPH | rain 1hr in | rain 24hr in | rain mn in | humidity % | barometer mb |
| 20260504184521 | 70 | 212 | 5.0 | 17.0 | 0.00 | 0.00 | 0.00 | 35 | 1011.0 |
| 20260504183027 | 71 | 238 | 5.0 | 15.0 | 0.00 | 0.00 | 0.00 | 37 | 1011.2 |
| 20260504181508 | 70 | 268 | 4.0 | 13.0 | 0.00 | 0.00 | 0.00 | 37 | 1011.4 |
| 20260504180018 | 70 | 194 | 6.0 | 16.0 | 0.00 | 0.00 | 0.00 | 38 | 1011.6 |
| 20260504171518 | 69 | 261 | 3.0 | 14.0 | 0.00 | 0.00 | 0.00 | 41 | 1012.1 |
| 20260504081508 | 43 | 269 | 0.0 | 0.0 | 0.00 | 0.00 | 0.00 | 68 | 1014.9 |
| 20260504050024 | 49 | 263 | 2.0 | 7.0 | 0.00 | 0.00 | 0.00 | 54 | 1014.6 |
| 20260504044537 | 49 | 257 | 2.0 | 7.0 | 0.00 | 0.00 | 0.00 | 54 | 1014.6 |
| 20260504043008 | 49 | 261 | 1.0 | 7.0 | 0.00 | 0.00 | 0.00 | 55 | 1014.4 |
| 20260504041517 | 49 | 275 | 1.0 | 6.0 | 0.00 | 0.00 | 0.00 | 56 | 1014.2 |
| 20260504040004 | 48 | 269 | 0.0 | 3.0 | 0.00 | 0.00 | 0.00 | 57 | 1014.2 |
| 20260504034506 | 47 | 267 | 0.0 | 4.0 | 0.00 | 0.00 | 0.00 | 59 | 1013.9 |
| 20260504033013 | 46 | 265 | 0.0 | 2.0 | 0.00 | 0.00 | 0.00 | 61 | 1013.9 |
| 20260504031518 | 46 | 265 | 0.0 | 2.0 | 0.00 | 0.00 | 0.00 | 62 | 1013.9 |
| 20260504030002 | 46 | 265 | 0.0 | 0.0 | 0.00 | 0.00 | 0.00 | 63 | 1013.8 |
| 20260504024515 | 46 | 265 | 0.0 | 1.0 | 0.00 | 0.00 | 0.00 | 66 | 1014.0 |
| 20260504023014 | 46 | 265 | 0.0 | 0.0 | 0.00 | 0.00 | 0.00 | 66 | 1013.8 |
| 20260504021531 | 46 | 265 | 0.0 | 0.0 | 0.00 | 0.00 | 0.00 | 64 | 1013.9 |
| 20260504020008 | 47 | 265 | 0.0 | 1.0 | 0.00 | 0.00 | 0.00 | 63 | 1013.8 |
| 20260504014514 | 47 | 265 | 0.0 | 0.0 | 0.00 | 0.00 | 0.00 | 59 | 1013.7 |
| 20260504013027 | 48 | 265 | 0.0 | 1.0 | 0.00 | 0.00 | 0.00 | 56 | 1013.6 |
| 20260504011521 | 50 | 265 | 0.0 | 0.0 | 0.00 | 0.00 | 0.00 | 53 | 1013.5 |
| 20260504010009 | 51 | 265 | 0.0 | 1.0 | 0.00 | 0.00 | 0.00 | 49 | 1013.2 |
| 20260504004513 | 52 | 265 | 0.0 | 0.0 | 0.00 | 0.00 | 0.00 | 47 | 1013.0 |
| 20260504003020 | 54 | 265 | 0.0 | 0.0 | 0.00 | 0.00 | 0.00 | 44 | 1012.8 |
| 20260504001524 | 55 | 265 | 0.0 | 3.0 | 0.00 | 0.00 | 0.00 | 41 | 1012.6 |
| 20260504000007 | 56 | 265 | 1.0 | 4.0 | 0.00 | 0.00 | 0.00 | 39 | 1012.5 |
| 20260503234510 | 57 | 281 | 4.0 | 9.0 | 0.00 | 0.00 | 0.00 | 37 | 1012.4 |
| 20260503233020 | 58 | 270 | 3.0 | 12.0 | 0.00 | 0.00 | 0.00 | 36 | 1012.2 |
| 20260503231526 | 58 | 271 | 5.0 | 10.0 | 0.00 | 0.00 | 0.00 | 35 | 1012.1 |
| 20260503230009 | 59 | 338 | 2.0 | 14.0 | 0.00 | 0.00 | 0.00 | 34 | 1012.0 |
| 20260503224515 | 59 | 278 | 2.0 | 15.0 | 0.00 | 0.00 | 0.00 | 35 | 1012.0 |
| 20260503223019 | 59 | 251 | 2.0 | 13.0 | 0.00 | 0.00 | 0.00 | 34 | 1011.9 |
| 20260503221505 | 60 | 263 | 4.0 | 17.0 | 0.00 | 0.00 | 0.00 | 32 | 1011.9 |
| 20260503220010 | 60 | 240 | 4.0 | 11.0 | 0.00 | 0.00 | 0.00 | 33 | 1011.9 |
| 20260503214516 | 60 | 257 | 4.0 | 11.0 | 0.00 | 0.00 | 0.00 | 33 | 1011.9 |
| 20260503213030 | 60 | 281 | 3.0 | 10.0 | 0.00 | 0.00 | 0.00 | 31 | 1011.8 |
| 20260503211514 | 60 | 271 | 8.0 | 15.0 | 0.00 | 0.00 | 0.00 | 34 | 1011.9 |
| 20260503210014 | 60 | 271 | 4.0 | 14.0 | 0.00 | 0.00 | 0.00 | 34 | 1011.9 |
| 20260503204525 | 60 | 323 | 4.0 | 13.0 | 0.00 | 0.00 | 0.00 | 33 | 1012.1 |
| 20260503203024 | 58 | 294 | 5.0 | 17.0 | 0.00 | 0.00 | 0.00 | 33 | 1012.2 |
| 20260503201523 | 59 | 232 | 5.0 | 13.0 | 0.00 | 0.00 | 0.00 | 34 | 1012.1 |
| 20260503200017 | 59 | 360 | 2.0 | 9.0 | 0.00 | 0.00 | 0.00 | 37 | 1012.0 |
| 20260503194528 | 59 | 271 | 6.0 | 12.0 | 0.00 | 0.00 | 0.00 | 36 | 1012.3 |
| 20260503193026 | 58 | 257 | 7.0 | 15.0 | 0.00 | 0.00 | 0.00 | 36 | 1012.6 |
| 20260503191510 | 58 | 279 | 5.0 | 13.0 | 0.00 | 0.00 | 0.00 | 35 | 1012.7 |
| 20260503190021 | 57 | 32 | 4.0 | 13.0 | 0.00 | 0.00 | 0.00 | 38 | 1012.7 |